H1 CPF 1 NER 2022 1 30 9 5301 glonass121 H2 1000702 9121 36401 2022 1 30 0 0 0 2022 2 2 23 45 0 900 1 1 0 0 0 H9 10 0 59609 0.00000 0 11385870.325 -831554.016 22814822.088 10 0 59609 900.00000 0 12945097.277 1454402.057 21943981.770 10 0 59609 1800.00000 0 14593808.315 3507539.750 20647534.827 10 0 59609 2700.00000 0 16274145.440 5288914.126 18950951.135 10 0 59609 3600.00000 0 17923484.269 6771658.452 16887389.492 10 0 59609 4500.00000 0 19477013.344 7941827.340 14497039.153 10 0 59609 5400.00000 0 20870417.283 8798698.715 11826332.104 10 0 59609 6300.00000 0 22042552.767 9354525.623 8927041.681 10 0 59609 7200.00000 0 22938007.040 9633751.298 5855284.879 10 0 59609 8100.00000 0 23509433.919 9671722.722 2670447.059 10 0 59609 9000.00000 0 23719571.606 9512958.081 -565951.192 10 0 59609 9900.00000 0 23542859.770 9209041.361 -3791424.358 10 0 59609 10800.00000 0 22966589.705 8816232.288 -6943708.447 10 0 59609 11700.00000 0 21991540.351 8392891.092 -9961942.410 10 0 59609 12600.00000 0 20632073.698 7996824.960 -12787823.388 10 0 59609 13500.00000 0 18915684.934 7682666.145 -15366715.289 10 0 59609 14400.00000 0 16882024.603 7499390.469 -17648690.872 10 0 59609 15300.00000 0 14581431.434 7488079.394 -19589488.502 10 0 59609 16200.00000 0 12073034.251 7680019.150 -21151366.122 10 0 59609 17100.00000 0 9422498.955 8095217.056 -22303836.515 10 0 59609 18000.00000 0 6699511.339 8741398.428 -23024269.572 10 0 59609 18900.00000 0 3975097.528 9613528.153 -23298349.429 10 0 59609 19800.00000 0 1318891.067 10693879.782 -23120376.464 10 0 59609 20700.00000 0 -1203541.306 11952652.431 -22493406.619 10 0 59609 21600.00000 0 -3533204.924 13349113.152 -21429223.223 10 0 59609 22500.00000 0 -5619909.257 14833220.210 -19948139.423 10 0 59609 23400.00000 0 -7424132.975 16347662.069 -18078632.502 10 0 59609 24300.00000 0 -8918442.904 17830228.610 -15856814.735 10 0 59609 25200.00000 0 -10088405.884 19216416.146 -13325748.881 10 0 59609 26100.00000 0 -10932953.554 20442156.666 -10534620.069 10 0 59609 27000.00000 0 -11464183.316 21446555.409 -7537779.258 10 0 59609 27900.00000 0 -11706602.934 22174519.395 -4393676.767 10 0 59609 28800.00000 0 -11695850.393 22579163.333 -1163707.462 10 0 59609 29700.00000 0 -11476943.816 22623888.339 2089008.380 10 0 59609 30600.00000 0 -11102137.064 22284042.653 5300882.631 10 0 59609 31500.00000 0 -10628474.113 21548091.567 8409128.032 10 0 59609 32400.00000 0 -10115148.824 20418245.239 11353010.603 10 0 59609 33300.00000 0 -9620785.126 18910516.812 14075058.607 10 0 59609 34200.00000 0 -9200755.984 17054208.316 16522202.050 10 0 59609 35100.00000 0 -8904657.412 14890846.795 18646818.786 10 0 59609 36000.00000 0 -8774046.412 12472616.884 20407665.767 10 0 59609 36900.00000 0 -8840539.643 9860357.651 21770676.996 10 0 59609 37800.00000 0 -9124353.278 7121209.718 22709613.208 10 0 59609 38700.00000 0 -9633344.891 4326012.869 23206551.885 10 0 59609 39600.00000 0 -10362596.241 1546564.274 23252209.853 10 0 59609 40500.00000 0 -11294552.432 -1147147.841 22846094.387 10 0 59609 41400.00000 0 -12399709.323 -3689620.253 21996482.290 10 0 59609 42300.00000 0 -13637817.991 -6022310.388 20720229.668 10 0 59609 43200.00000 0 -14959553.765 -8095810.863 19042418.297 10 0 59609 44100.00000 0 -16308578.382 -9871635.474 16995847.232 10 0 59609 45000.00000 0 -17623908.012 -11323545.736 14620380.961 10 0 59609 45900.00000 0 -18842487.877 -12438366.542 11962167.579 10 0 59609 46800.00000 0 -19901866.240 -13216260.609 9072742.546 10 0 59609 47700.00000 0 -20742856.941 -13670453.573 6008035.249 10 0 59609 48600.00000 0 -21312080.612 -13826423.975 2827297.055 10 0 59609 49500.00000 0 -21564279.972 -13720594.009 -408029.460 10 0 59609 50400.00000 0 -21464314.037 -13398576.951 -3635479.443 10 0 59609 51300.00000 0 -20988749.276 -12913054.983 -6792751.853 10 0 59609 52200.00000 0 -20126982.128 -12321375.923 -9818891.537 10 0 59609 53100.00000 0 -18881846.293 -11682968.564 -12655446.133 10 0 59609 54000.00000 0 -17269678.946 -11056683.636 -15247577.270 10 0 59609 54900.00000 0 -15319841.839 -10498170.383 -17545106.219 10 0 59609 55800.00000 0 -13073715.257 -10057397.460 -19503475.106 10 0 59609 56700.00000 0 -10583204.071 -9776421.147 -21084606.198 10 0 59609 57600.00000 0 -7908814.931 -9687494.175 -22257643.226 10 0 59609 58500.00000 0 -5117381.344 -9811594.896 -22999560.439 10 0 59609 59400.00000 0 -2279527.970 -10157439.741 -23295627.117 10 0 59609 60300.00000 0 533023.392 -10721022.449 -23139717.436 10 0 59609 61200.00000 0 3250196.310 -11485702.041 -22534457.992 10 0 59609 62100.00000 0 5806238.235 -12422838.994 -21491208.043 10 0 59609 63000.00000 0 8142224.197 -13492956.076 -20029870.354 10 0 59609 63900.00000 0 10208281.040 -14647378.051 -18178533.781 10 0 59609 64800.00000 0 11965438.445 -15830283.725 -15972952.047 10 0 59609 65700.00000 0 13387027.877 -16981085.561 -13455866.618 10 0 59609 66600.00000 0 14459568.985 -18037037.165 -10676185.294 10 0 59609 67500.00000 0 15183104.595 -18935958.153 -7688031.479 10 0 59609 68400.00000 0 15570968.859 -19618959.833 -4549682.542 10 0 59609 69300.00000 0 15648997.573 -20033054.154 -1322418.688 10 0 59609 70200.00000 0 15454214.141 -20133532.685 1930693.731 10 0 59609 71100.00000 0 15033047.780 -19886011.879 5146058.614 10 0 59609 72000.00000 0 14439161.187 -19268055.141 8260819.022 10 0 59609 72900.00000 0 13730982.275 -18270300.691 11214111.098 10 0 59609 73800.00000 0 12969047.517 -16897045.812 13948275.820 10 0 59609 74700.00000 0 12213272.502 -15166262.088 16410002.522 10 0 59609 75600.00000 0 11520268.138 -13109041.098 18551380.091 10 0 59609 76500.00000 0 10940818.293 -10768494.808 20330834.296 10 0 59609 77400.00000 0 10517626.983 -8198158.478 21713932.606 10 0 59609 78300.00000 0 10283430.725 -5459964.867 22674041.387 10 0 59609 79200.00000 0 10259555.191 -2621876.340 23192823.887 10 0 59609 80100.00000 0 10454975.576 244724.617 23260571.093 10 0 59609 81000.00000 0 10865918.174 3067776.734 22876361.218 10 0 59609 81900.00000 0 11476017.355 5777298.904 22048047.093 10 0 59609 82800.00000 0 12257018.690 8308052.601 20792074.062 10 0 59609 83700.00000 0 13169996.182 10601998.773 19133134.094 10 0 59609 84600.00000 0 14167030.427 12610449.578 17103664.659 10 0 59609 85500.00000 0 15193275.783 14295828.484 14743203.520 10 0 59610 0.00000 0 16189328.998 15632968.945 12097613.113 10 0 59610 900.00000 0 17093800.459 16609901.821 9218188.444 10 0 59610 1800.00000 0 17845979.564 17228100.362 6160669.378 10 0 59610 2700.00000 0 18388485.435 17502177.929 2984171.096 10 0 59610 3600.00000 0 18669792.063 17459051.521 -249944.047 10 0 59610 4500.00000 0 18646524.240 17136608.363 -3479234.052 10 0 59610 5400.00000 0 18285429.509 16581931.935 -6641362.971 10 0 59610 6300.00000 0 17564944.705 15849161.572 -9675283.582 10 0 59610 7200.00000 0 16476292.065 14997074.477 -12522395.927 10 0 59610 8100.00000 0 15024058.930 14086490.116 -15127661.101 10 0 59610 9000.00000 0 13226235.749 13177604.155 -17440650.475 10 0 59610 9900.00000 0 11113709.051 12327361.998 -19416511.373 10 0 59610 10800.00000 0 8729227.919 11586980.611 -21016831.672 10 0 59610 11700.00000 0 6125883.877 10999721.513 -22210387.213 10 0 59610 12600.00000 0 3365164.024 10599008.022 -22973757.618 10 0 59610 13500.00000 0 514654.847 10406966.146 -23291798.145 10 0 59610 14400.00000 0 -2354511.208 10433451.586 -23157957.353 10 0 59610 15300.00000 0 -5170362.950 10675605.689 -22574432.765 10 0 59610 16200.00000 0 -7862841.016 11117961.526 -21552159.442 10 0 59610 17100.00000 0 -10366478.564 11733098.521 -20110629.209 10 0 59610 18000.00000 0 -12622900.605 12482820.935 -18277541.489 10 0 59610 18900.00000 0 -14583037.166 13319813.125 -16088290.027 10 0 59610 19800.00000 0 -16208956.513 14189703.720 -13585293.225 10 0 59610 20700.00000 0 -17475239.805 15033452.608 -10817179.492 10 0 59610 21600.00000 0 -18369837.686 15789959.904 -7837842.452 10 0 59610 22500.00000 0 -18894371.034 16398785.540 -4705384.175 10 0 59610 23400.00000 0 -19063861.930 16802862.392 -1480967.794 10 0 59610 24300.00000 0 -18905905.731 16951085.354 1772396.704 10 0 59610 25200.00000 0 -18459319.612 16800663.599 4991107.707 10 0 59610 26100.00000 0 -17772326.016 16319133.263 8112241.070 10 0 59610 27000.00000 0 -16900350.028 15485942.483 11074805.530 10 0 59610 27900.00000 0 -15903526.614 14293539.518 13820957.246 10 0 59610 28800.00000 0 -14844026.222 12747916.560 16297147.282 10 0 59610 29700.00000 0 -13783314.849 10868585.810 18455177.869 10 0 59610 30600.00000 0 -12779466.882 8687989.140 20253145.732 10 0 59610 31500.00000 0 -11884646.068 6250367.331 21656253.723 10 0 59610 32400.00000 0 -11142861.745 3610137.859 22637475.471 10 0 59610 33300.00000 0 -10588094.769 829850.909 23178061.283 10 0 59610 34200.00000 0 -10242870.930 -2022189.260 23267877.228 10 0 59610 35100.00000 0 -10117339.827 -4874537.179 22905572.959 10 0 59610 36000.00000 0 -10208895.335 -7655343.852 22098577.414 10 0 59610 36900.00000 0 -10502350.615 -10295105.465 20862924.797 10 0 59610 37800.00000 0 -10970657.343 -12729309.964 19222916.465 10 0 59610 38700.00000 0 -11576136.263 -14900873.400 17210627.068 10 0 59610 39600.00000 0 -12272165.195 -16762267.282 14865266.038 10 0 59610 40500.00000 0 -13005252.184 -18277251.610 12232407.697 10 0 59610 41400.00000 0 -13717406.024 -19422144.844 9363105.343 10 0 59610 42300.00000 0 -14348704.711 -20186581.149 6312906.427 10 0 59610 43200.00000 0 -14839954.721 -20573726.451 3140787.359 10 0 59610 44100.00000 0 -15135330.712 -20599946.789 -91972.443 10 0 59610 45000.00000 0 -15184886.366 -20293944.583 -3322956.645 10 0 59610 45900.00000 0 -14946832.554 -19695399.982 -6489797.281 10 0 59610 46800.00000 0 -14389488.591 -18853174.291 -9531358.031 10 0 59610 47700.00000 0 -13492825.622 -17823150.061 -12388894.346 10 0 59610 48600.00000 0 -12249537.707 -16665797.060 -15007169.792 10 0 59610 49500.00000 0 -10665595.089 -15443564.361 -17335508.764 10 0 59610 50400.00000 0 -8760255.114 -14218205.897 -19328766.532 10 0 59610 51300.00000 0 -6565527.978 -13048149.663 -20948199.045 10 0 59610 52200.00000 0 -4125116.563 -11986019.227 -22162216.317 10 0 59610 53100.00000 0 -1492871.066 -11076410.407 -22947004.916 10 0 59610 54000.00000 0 1269181.020 -10354015.970 -23287007.094 10 0 59610 54900.00000 0 4093151.318 -9842177.421 -23175246.230 10 0 59610 55800.00000 0 6907860.240 -9551925.912 -22613490.641 10 0 59610 56700.00000 0 9641555.714 -9481554.405 -21612250.514 10 0 59610 57600.00000 0 12224669.606 -9616741.468 -20190605.544 10 0 59610 58500.00000 0 14592497.748 -9931224.049 -18375864.061 10 0 59610 59400.00000 0 16687691.653 -10387993.375 -16203057.716 10 0 59610 60300.00000 0 18462456.779 -10940965.542 -13714279.298 10 0 59610 61200.00000 0 19880363.601 -11537057.590 -10957874.888 10 0 59610 62100.00000 0 20917693.521 -12118581.689 -7987505.009 10 0 59610 63000.00000 0 21564261.032 -12625855.487 -4861092.835 10 0 59610 63900.00000 0 21823675.742 -12999916.480 -1639680.646 10 0 59610 64800.00000 0 21713032.137 -13185222.940 1613781.778 10 0 59610 65700.00000 0 21262039.915 -13132223.887 4835691.075 10 0 59610 66600.00000 0 20511632.268 -12799685.978 7963059.437 10 0 59610 67500.00000 0 19512112.575 -12156675.571 10934771.401 10 0 59610 68400.00000 0 18320920.140 -11184109.372 13692801.083 10 0 59610 69300.00000 0 17000112.284 -9875806.162 16183363.564 10 0 59610 70200.00000 0 15613672.098 -8238994.068 18357976.186 10 0 59610 71100.00000 0 14224758.253 -6294251.766 20174407.882 10 0 59610 72000.00000 0 12893015.033 -4074886.750 21597497.634 10 0 59610 72900.00000 0 11672057.264 -1625778.016 22599826.591 10 0 59610 73800.00000 0 10607236.266 998266.821 23162231.917 10 0 59610 74700.00000 0 9733780.073 3734569.452 23274154.110 10 0 59610 75600.00000 0 9075384.249 6514966.566 22933813.207 10 0 59610 76500.00000 0 8643309.945 9268422.894 22148212.811 10 0 59610 77400.00000 0 8436023.935 11923762.469 20932974.232 10 0 59610 78300.00000 0 8439392.415 14412405.005 19312006.170 10 0 59610 79200.00000 0 8627417.191 16670994.974 17317018.210 10 0 59610 80100.00000 0 8963480.521 18643816.023 14986889.033 10 0 59610 81000.00000 0 9402044.146 20284892.994 12366902.576 10 0 59610 81900.00000 0 9890729.685 21559697.112 9507867.345 10 0 59610 82800.00000 0 10372692.422 22446386.368 6465135.970 10 0 59610 83700.00000 0 10789188.886 22936532.438 3297543.446 10 0 59610 84600.00000 0 11082231.148 23035306.412 66283.664 10 0 59610 85500.00000 0 11197217.594 22761117.525 -3166255.207 10 0 59611 0.00000 0 11085431.151 22144721.365 -6337675.257 10 0 59611 900.00000 0 10706301.363 21227834.863 -9386753.791 10 0 59611 1800.00000 0 10029336.713 20061316.527 -12254603.293 10 0 59611 2700.00000 0 9035646.482 18702985.861 -14885791.474 10 0 59611 3600.00000 0 7718988.276 17215172.286 -17229397.184 10 0 59611 4500.00000 0 6086296.308 15662093.838 -19239984.853 10 0 59611 5400.00000 0 4157666.437 14107173.273 -20878479.527 10 0 59611 6300.00000 0 1965795.791 12610401.841 -22112926.248 10 0 59611 7200.00000 0 -445102.951 11225859.553 -22919119.218 10 0 59611 8100.00000 0 -3020871.177 9999494.685 -23281088.172 10 0 59611 9000.00000 0 -5699396.414 8967255.260 -23191431.544 10 0 59611 9900.00000 0 -8412947.479 8153651.314 -22651488.347 10 0 59611 10800.00000 0 -11090758.700 7570809.468 -21671343.405 10 0 59611 11700.00000 0 -13661757.930 7218061.303 -20269663.356 10 0 59611 12600.00000 0 -16057325.966 7082085.050 -18473364.053 10 0 59611 13500.00000 0 -18213972.618 7137596.853 -16317113.269 10 0 59611 14400.00000 0 -20075816.963 7348564.526 -13842676.055 10 0 59611 15300.00000 0 -21596766.418 7669894.016 -11098113.792 10 0 59611 16200.00000 0 -22742301.248 8049518.017 -8136851.407 10 0 59611 17100.00000 0 -23490787.257 8430798.080 -5016630.622 10 0 59611 18000.00000 0 -23834259.213 8755137.261 -1798370.305 10 0 59611 18900.00000 0 -23778640.322 8964690.405 1455042.489 10 0 59611 19800.00000 0 -23343387.526 9005054.316 4680005.131 10 0 59611 20700.00000 0 -22560577.535 8827820.513 7813468.577 10 0 59611 21600.00000 0 -21473473.171 8392879.042 10794195.545 10 0 59611 22500.00000 0 -20134632.342 7670372.747 13563980.411 10 0 59611 23400.00000 0 -18603642.024 6642216.881 16068804.472 10 0 59611 24300.00000 0 -16944575.662 5303118.195 18259902.217 10 0 59611 25200.00000 0 -15223284.043 3661049.773 20094716.592 10 0 59611 26100.00000 0 -13504636.168 1737161.754 21537724.228 10 0 59611 27000.00000 0 -11849827.962 -434867.418 22561114.968 10 0 59611 27900.00000 0 -10313872.654 -2810010.647 23145313.636 10 0 59611 28800.00000 0 -8943377.976 -5333551.654 23279335.578 10 0 59611 29700.00000 0 -7774702.013 -7943153.333 22960971.240 10 0 59611 30600.00000 0 -6832562.713 -10571247.439 22196798.547 10 0 59611 31500.00000 0 -6129156.293 -13147645.218 21002025.199 10 0 59611 32400.00000 0 -5663818.003 -15602260.274 19400166.198 10 0 59611 33300.00000 0 -5423235.833 -17867831.138 17422564.697 10 0 59611 34200.00000 0 -5382204.875 -19882531.632 15107766.990 10 0 59611 35100.00000 0 -5504887.752 -21592362.618 12500764.748 10 0 59611 36000.00000 0 -5746526.060 -22953228.135 9652119.625 10 0 59611 36900.00000 0 -6055529.584 -23932612.237 6616987.227 10 0 59611 37800.00000 0 -6375854.999 -24510789.503 3454058.850 10 0 59611 38700.00000 0 -6649574.360 -24681521.293 224440.507 10 0 59611 39600.00000 0 -6819526.295 -24452210.745 -3009510.200 10 0 59611 40500.00000 0 -6831939.758 -23843511.495 -6185368.425 10 0 59611 41400.00000 0 -6638921.495 -22888407.116 -9241826.471 10 0 59611 42300.00000 0 -6200704.024 -21630799.600 -12119857.009 10 0 59611 43200.00000 0 -5487560.685 -20123664.989 -14763834.500 10 0 59611 44100.00000 0 -4481307.614 -18426851.634 -17122594.828 10 0 59611 45000.00000 0 -3176329.253 -16604611.108 -19150414.076 10 0 59611 45900.00000 0 -1580082.988 -14722962.628 -20807888.688 10 0 59611 46800.00000 0 286940.473 -12846998.808 -22062700.765 10 0 59611 47700.00000 0 2391802.365 -11038243.309 -22890253.805 10 0 59611 48600.00000 0 4690225.974 -9352169.225 -23274166.270 10 0 59611 49500.00000 0 7128189.265 -7835981.014 -23206612.441 10 0 59611 50400.00000 0 9643937.448 -6526752.639 -22688502.356 10 0 59611 51300.00000 0 12170335.168 -5450000.424 -21729495.329 10 0 59611 52200.00000 0 14637463.132 -4618751.692 -20347844.338 10 0 59611 53100.00000 0 16975352.717 -4033150.074 -18570071.687 10 0 59611 54000.00000 0 19116745.306 -3680616.040 -16430479.716 10 0 59611 54900.00000 0 20999760.791 -3536557.830 -13970503.690 10 0 59611 55800.00000 0 22570362.272 -3565604.406 -11237917.750 10 0 59611 56700.00000 0 23784511.684 -3723309.268 -8285908.206 10 0 59611 57600.00000 0 24609923.382 -3958253.163 -5172031.903 10 0 59611 58500.00000 0 25027339.385 -4214455.805 -1957080.572 10 0 59611 59400.00000 0 25031270.367 -4433992.593 1296125.353 10 0 59611 60300.00000 0 24630169.490 -4559702.780 4523987.877 10 0 59611 61200.00000 0 23846030.988 -4537871.130 7663400.493 10 0 59611 62100.00000 0 22713430.627 -4320765.974 10653007.592 10 0 59611 63000.00000 0 21278049.717 -3868922.863 13434426.925 10 0 59611 63900.00000 0 19594746.913 -3153074.355 15953408.669 10 0 59611 64800.00000 0 17725261.649 -2155642.210 18160906.636 10 0 59611 65700.00000 0 15735648.633 -871727.755 20014039.474 10 0 59611 66600.00000 0 13693553.965 690441.634 21476922.660 10 0 59611 67500.00000 0 11665449.357 2509628.227 22521355.456 10 0 59611 68400.00000 0 9713941.752 4552255.806 23127350.597 10 0 59611 69300.00000 0 7895271.388 6773607.930 23283498.057 10 0 59611 70200.00000 0 6257102.208 9119500.763 22987158.005 10 0 59611 71100.00000 0 4836695.149 11528359.066 22244481.536 10 0 59611 72000.00000 0 3659537.990 13933607.522 21070261.169 10 0 59611 72900.00000 0 2738485.621 16266277.188 19487616.229 10 0 59611 73800.00000 0 2073442.915 18457718.688 17527521.128 10 0 59611 74700.00000 0 1651599.793 20442309.955 15228187.196 10 0 59611 75600.00000 0 1448205.150 22160047.406 12634311.061 10 0 59611 76500.00000 0 1427844.386 23558914.687 9796204.609 10 0 59611 77400.00000 0 1546164.843 24596932.733 6768823.439 10 0 59611 78300.00000 0 1751975.522 25243808.239 3610712.129 10 0 59611 79200.00000 0 1989632.488 25482114.263 382885.844 10 0 59611 80100.00000 0 2201610.114 25307955.733 -2852331.253 10 0 59611 81000.00000 0 2331151.082 24731093.644 -6032489.811 10 0 59611 81900.00000 0 2324885.013 23774523.582 -9096200.169 10 0 59611 82800.00000 0 2135307.121 22473526.229 -11984297.096 10 0 59611 83700.00000 0 1723013.900 20874228.785 -14640963.693 10 0 59611 84600.00000 0 1058602.697 19031735.878 -17014794.478 10 0 59611 85500.00000 0 124155.521 17007906.035 -19059778.492 10 0 59612 0.00000 0 -1085755.828 14868864.251 -20736184.511 10 0 59612 900.00000 0 -2563587.817 12682350.769 -22011332.824 10 0 59612 1800.00000 0 -4288887.429 10515017.165 -22860236.673 10 0 59612 2700.00000 0 -6228901.494 8429776.676 -23266103.628 10 0 59612 3600.00000 0 -8339709.804 6483320.670 -23220683.906 10 0 59612 4500.00000 0 -10567839.228 4723903.116 -22724458.324 10 0 59612 5400.00000 0 -12852295.120 3189485.762 -21786660.038 10 0 59612 6300.00000 0 -15126928.487 1906322.335 -20425127.265 10 0 59612 7200.00000 0 -17323042.455 888042.431 -18665987.209 10 0 59612 8100.00000 0 -19372130.547 135275.216 -16543174.788 10 0 59612 9000.00000 0 -21208632.532 -364169.434 -14097793.140 10 0 59612 9900.00000 0 -22772591.555 -634568.311 -11377326.551 10 0 59612 10800.00000 0 -24012099.385 -711030.552 -8434719.934 10 0 59612 11700.00000 0 -24885424.651 -637774.206 -5327342.388 10 0 59612 12600.00000 0 -25362731.774 -466007.046 -2115855.627 10 0 59612 13500.00000 0 -25427315.554 -251502.830 1136989.389 10 0 59612 14400.00000 0 -25076297.114 -51977.999 4367602.091 10 0 59612 15300.00000 0 -24320750.331 75617.003 7512821.219 10 0 59612 16200.00000 0 -23185252.868 77773.614 10511175.437 10 0 59612 17100.00000 0 -21706881.159 -93048.556 13304108.318 10 0 59612 18000.00000 0 -19933693.095 -476155.080 15837141.170 10 0 59612 18900.00000 0 -17922764.448 -1100708.090 18060949.113 10 0 59612 19800.00000 0 -15737864.111 -1984258.009 19932328.152 10 0 59612 20700.00000 0 -13446868.522 -3131778.300 21415033.877 10 0 59612 21600.00000 0 -11119026.009 -4535243.759 22480475.811 10 0 59612 22500.00000 0 -8822187.322 -6173769.164 23108254.999 10 0 59612 23400.00000 0 -6620119.068 -8014300.978 23286536.016 10 0 59612 24300.00000 0 -4570012.045 -10012831.345 23012248.325 10 0 59612 25200.00000 0 -2720287.148 -12116081.833 22291115.409 10 0 59612 26100.00000 0 -1108788.174 -14263585.015 21137513.491 10 0 59612 27000.00000 0 238566.220 -16390075.954 19574164.844 10 0 59612 27900.00000 0 1308618.826 -18428093.472 17631673.509 10 0 59612 28800.00000 0 2101267.341 -20310682.951 15347913.998 10 0 59612 29700.00000 0 2629206.523 -21974089.040 12767285.861 10 0 59612 30600.00000 0 2917133.185 -23360327.561 9939849.023 10 0 59612 31500.00000 0 3000450.011 -24419531.395 6920356.772 10 0 59612 32400.00000 0 2923524.447 -25111974.737 3767204.620 10 0 59612 33300.00000 0 2737576.753 -25409693.554 541314.503 10 0 59612 34200.00000 0 2498286.035 -25297636.570 -2695025.214 10 0 59612 35100.00000 0 2263214.310 -24774300.362 -5879343.013 10 0 59612 36000.00000 0 2089155.764 -23851822.962 -8950169.591 10 0 59612 36900.00000 0 2029521.224 -22555532.285 -11848204.099 10 0 59612 37800.00000 0 2131866.409 -20922967.683 -14517440.534 10 0 59612 38700.00000 0 2435666.683 -19002414.107 -16906234.237 10 0 59612 39600.00000 0 2970431.171 -16851008.080 -18968289.293 10 0 59612 40500.00000 0 3754235.520 -14532491.996 -20663548.981 10 0 59612 41400.00000 0 4792735.900 -12114707.597 -21958972.854 10 0 59612 42300.00000 0 6078707.400 -9666930.414 -22829185.610 10 0 59612 43200.00000 0 7592128.920 -7257153.671 -23256984.962 10 0 59612 44100.00000 0 9300814.405 -4949432.850 -23233697.747 10 0 59612 45000.00000 0 11161567.705 -2801400.260 -22759375.861 10 0 59612 45900.00000 0 13121816.639 -862052.713 -21842826.236 10 0 59612 46800.00000 0 15121661.420 830095.165 -20501471.876 10 0 59612 47700.00000 0 17096254.600 2248413.809 -18761044.041 10 0 59612 48600.00000 0 18978414.864 3379057.623 -16655108.973 10 0 59612 49500.00000 0 20701366.088 4221320.541 -14224435.977 10 0 59612 50400.00000 0 22201486.398 4787431.557 -11516217.319 10 0 59612 51300.00000 0 23420950.511 5101797.529 -8583153.896 10 0 59612 52200.00000 0 24310152.034 5199724.469 -5482424.033 10 0 59612 53100.00000 0 24829800.961 5125671.390 -2274556.066 10 0 59612 54000.00000 0 24952605.102 4931111.621 977772.084 10 0 59612 54900.00000 0 24664461.775 4672094.070 4210980.920 10 0 59612 55800.00000 0 23965107.340 4406610.440 7361857.994 10 0 59612 56700.00000 0 22868195.852 4191883.168 10368819.635 10 0 59612 57600.00000 0 21400803.144 4081692.469 13173138.341 10 0 59612 58500.00000 0 19602377.912 4123858.888 15720109.298 10 0 59612 59400.00000 0 17523185.477 4357990.718 17960131.298 10 0 59612 60300.00000 0 15222311.773 4813593.552 19849679.667 10 0 59612 61200.00000 0 12765313.866 5508622.893 21352151.660 10 0 59612 62100.00000 0 10221617.837 6448541.059 22438568.205 10 0 59612 63000.00000 0 7661774.867 7625917.409 23088119.378 10 0 59612 63900.00000 0 5154691.501 9020587.302 23288544.623 10 0 59612 64800.00000 0 2764949.943 10600361.305 23036342.493 10 0 59612 65700.00000 0 550329.353 12322252.964 22336808.159 10 0 59612 66600.00000 0 -1440370.287 14134171.838 21203900.362 10 0 59612 67500.00000 0 -3169113.807 15977009.530 19659942.638 10 0 59612 68400.00000 0 -4609954.973 17787030.597 17735166.551 10 0 59612 69300.00000 0 -5749847.652 19498468.184 15467107.328 10 0 59612 70200.00000 0 -6588914.075 21046216.443 12899864.682 10 0 59612 71100.00000 0 -7140162.697 22368508.393 10083243.638 10 0 59612 72000.00000 0 -7428670.552 23409468.983 7071792.112 10 0 59612 72900.00000 0 -7490266.818 24121438.660 3923753.437 10 0 59612 73800.00000 0 -7369774.388 24466972.475 699953.228 10 0 59612 74700.00000 0 -7118883.896 24420433.097 -2537358.975 10 0 59612 75600.00000 0 -6793749.390 23969112.825 -5725692.378 10 0 59612 76500.00000 0 -6452405.848 23113838.765 -8803500.736 10 0 59612 77400.00000 0 -6152115.798 21869036.291 -11711350.040 10 0 59612 78300.00000 0 -5946755.078 20262247.726 -14393047.361 10 0 59612 79200.00000 0 -5884346.160 18333125.167 -16796710.731 10 0 59612 80100.00000 0 -6004841.619 16131937.550 -18875760.846 10 0 59612 81000.00000 0 -6338250.303 13717651.724 -20589816.633 10 0 59612 81900.00000 0 -6903185.169 11155664.542 -21905478.213 10 0 59612 82800.00000 0 -7705894.829 8515277.493 -22796982.327 10 0 59612 83700.00000 0 -8739821.463 5867016.063 -23246717.321 10 0 59612 84600.00000 0 -9985706.418 3279902.878 -23245586.840 10 0 59612 85500.00000 0 -11412242.398 818796.357 -22793213.709 99